Weather History for KTVF - November, 2012

Change the Weather History Date:

Monday, November 5, 2012

  Actual Average Record
Temperature  
Mean Temperature 37 °F -  
Max Temperature 42 °F 37 °F 64 °F (2001)
Min Temperature 32 °F 24 °F 5 °F (1973)
Degree Days  
Heating Degree Days 28    
Moisture  
Dew Point 32 °F    
Average Humidity 87    
Maximum Humidity 100    
Minimum Humidity 66    
Precipitation  
Precipitation 0.08 in - - ()
Sea Level Pressure  
Sea Level Pressure 30.04 in    
Wind  
Wind Speed 8 mph (SSE)    
Max Wind Speed 18 mph    
Max Gust Speed 28 mph    
Visibility 9 miles    
Events      
Averages and records for this station are not official NWS values.
T = Trace of Precipitation, MM = Missing Value Source: NWS Daily Summary

Daily Weather History Graph

Daily Weather History Graph

Search for Another Location

Airport or City:

Trip Planner

Search our weather history database for the weather conditions in past years. The results will help you decide how hot, cold, wet, or windy it might be!

Date:

Astronomy

Nov. 05, 2012 Rise Set
Actual Time 7:16 AM CST 4:59 PM CST
Civil Twilight 6:43 AM CST 5:32 PM CST
Nautical Twilight 6:06 AM CST 6:09 PM CST
Astronomical Twilight 5:30 AM CST 6:45 PM CST
Moon 10:38 PM CST (11/5) 12:37 PM CST (11/5)
Length of Visible Light 10h 48m
Length of Day
9h 42m
Waning Gibbous, 62% of the Moon is Illuminated
Nov 5
Waning Gibbous
Nov 6
Last Quarter
Nov 13
New
Nov 20
First Quarter
Nov 28
Full

Hourly Weather History & Observations

Time (CST) Temp. Windchill Dew Point Humidity Pressure Visibility Wind Dir Wind Speed Gust Speed Precip Events Conditions
12:15 AM 35.6 °F 31.7 °F 30.2 °F 81% 30.22 in 10.0 mi East 4.6 mph - N/A   Overcast
12:35 AM 35.6 °F 31.7 °F 30.2 °F 81% 30.22 in 10.0 mi East 4.6 mph - N/A   Overcast
12:55 AM 33.8 °F 28.6 °F 30.2 °F 87% 30.22 in 10.0 mi East 5.8 mph - N/A   Overcast
1:15 AM 33.8 °F 29.6 °F 30.2 °F 87% 30.23 in 10.0 mi East 4.6 mph - N/A   Overcast
1:35 AM 33.8 °F 28.6 °F 30.2 °F 87% 30.22 in 10.0 mi East 5.8 mph - N/A   Overcast
1:55 AM 33.8 °F 29.6 °F 30.2 °F 87% 30.22 in 10.0 mi East 4.6 mph - N/A   Overcast
2:15 AM 33.8 °F 27.7 °F 30.2 °F 87% 30.22 in 10.0 mi East 6.9 mph - N/A   Overcast
2:35 AM 33.8 °F 28.6 °F 30.2 °F 87% 30.22 in 10.0 mi ESE 5.8 mph - N/A   Overcast
2:55 AM 33.8 °F 29.6 °F 30.2 °F 87% 30.23 in 10.0 mi ESE 4.6 mph - N/A   Overcast
3:15 AM 33.8 °F 28.6 °F 30.2 °F 87% 30.23 in 10.0 mi ESE 5.8 mph - N/A   Overcast
3:35 AM 33.8 °F 28.6 °F 30.2 °F 87% 30.23 in 10.0 mi ESE 5.8 mph - N/A   Overcast
3:55 AM 33.8 °F 29.6 °F 30.2 °F 87% 30.22 in 10.0 mi ESE 4.6 mph - N/A   Overcast
4:15 AM 33.8 °F 29.6 °F 30.2 °F 87% 30.21 in 10.0 mi SE 4.6 mph - N/A   Overcast
4:35 AM 33.8 °F 29.6 °F 30.2 °F 87% 30.21 in 10.0 mi SE 4.6 mph - N/A   Overcast
4:55 AM 33.8 °F 30.8 °F 30.2 °F 87% 30.21 in 10.0 mi SE 3.5 mph - N/A   Overcast
5:15 AM 32.0 °F 27.5 °F 30.2 °F 93% 30.21 in 10.0 mi ESE 4.6 mph - N/A   Overcast
5:35 AM 33.8 °F 30.8 °F 30.2 °F 87% 30.21 in 10.0 mi SE 3.5 mph - N/A   Overcast
5:55 AM 32.0 °F 27.5 °F 30.2 °F 93% 30.20 in 10.0 mi SE 4.6 mph - N/A   Overcast
6:15 AM 32.0 °F 27.5 °F 30.2 °F 93% 30.20 in 10.0 mi SSE 4.6 mph - N/A   Overcast
6:35 AM 32.0 °F 27.5 °F 30.2 °F 93% 30.19 in 10.0 mi SE 4.6 mph - N/A   Overcast
6:55 AM 32.0 °F 26.4 °F 28.4 °F 87% 30.19 in 10.0 mi SE 5.8 mph - N/A   Overcast
7:15 AM 32.0 °F 25.6 °F 30.2 °F 93% 30.17 in 10.0 mi SE 6.9 mph - N/A   Overcast
7:35 AM 32.0 °F 26.4 °F 30.2 °F 93% 30.17 in 10.0 mi SE 5.8 mph - N/A   Overcast
7:55 AM 32.0 °F 26.4 °F 30.2 °F 93% 30.17 in 10.0 mi SSE 5.8 mph - N/A   Overcast
8:15 AM 33.8 °F 28.6 °F 30.2 °F 87% 30.17 in 10.0 mi SE 5.8 mph - N/A   Overcast
8:35 AM 33.8 °F 30.8 °F 30.2 °F 87% 30.18 in 10.0 mi South 3.5 mph - N/A   Overcast
8:55 AM 33.8 °F 28.6 °F 30.2 °F 87% 30.17 in 10.0 mi SSE 5.8 mph - N/A   Overcast
9:15 AM 33.8 °F 28.6 °F 30.2 °F 87% 30.18 in 10.0 mi SSE 5.8 mph - N/A   Overcast
9:35 AM 35.6 °F 31.7 °F 32.0 °F 87% 30.18 in 10.0 mi South 4.6 mph - N/A   Overcast
9:55 AM 35.6 °F 29.9 °F 30.2 °F 81% 30.17 in 10.0 mi South 6.9 mph - N/A   Overcast
10:15 AM 35.6 °F 29.9 °F 30.2 °F 81% 30.17 in 10.0 mi SSW 6.9 mph - N/A   Overcast
10:35 AM 35.6 °F 29.2 °F 30.2 °F 81% 30.16 in 10.0 mi SSW 8.1 mph - N/A   Overcast
10:55 AM 37.4 °F 30.8 °F 32.0 °F 81% 30.15 in 10.0 mi South 9.2 mph - N/A   Mostly Cloudy
11:15 AM 37.4 °F 30.8 °F 32.0 °F 81% 30.14 in 10.0 mi South 9.2 mph - N/A   Clear
11:35 AM 39.2 °F 34.2 °F 32.0 °F 75% 30.13 in 10.0 mi South 6.9 mph - N/A   Scattered Clouds
11:55 AM 39.2 °F 32.5 °F 32.0 °F 75% 30.10 in 10.0 mi South 10.4 mph - N/A   Partly Cloudy
12:15 PM 39.2 °F 33.0 °F 33.8 °F 81% 30.08 in 10.0 mi South 9.2 mph - N/A   Clear
12:35 PM 39.2 °F 33.0 °F 33.8 °F 81% 30.07 in 10.0 mi South 9.2 mph - N/A   Scattered Clouds
12:55 PM 41.0 °F 34.7 °F 33.8 °F 76% 30.05 in 10.0 mi South 10.4 mph - N/A   Mostly Cloudy
1:15 PM 42.8 °F 36.6 °F 33.8 °F 70% 30.04 in 10.0 mi SSW 11.5 mph 16.1 mph N/A   Mostly Cloudy
1:35 PM 41.0 °F 33.1 °F 32.0 °F 70% 30.02 in 10.0 mi South 15.0 mph - N/A   Overcast
1:55 PM 42.8 °F 36.6 °F 32.0 °F 66% 30.01 in 10.0 mi South 11.5 mph 16.1 mph N/A   Overcast
2:15 PM 42.8 °F 35.8 °F 33.8 °F 70% 30.01 in 10.0 mi South 13.8 mph 20.7 mph N/A   Mostly Cloudy
2:35 PM 42.8 °F 36.2 °F 33.8 °F 70% 30.01 in 10.0 mi SSW 12.7 mph - N/A   Mostly Cloudy
2:55 PM 41.0 °F 33.9 °F 33.8 °F 76% 29.99 in 10.0 mi SSW 12.7 mph 19.6 mph N/A   Overcast
3:15 PM 41.0 °F 33.9 °F 33.8 °F 76% 29.98 in 10.0 mi SSW 12.7 mph - N/A   Overcast
4:15 PM 39.2 °F 32.0 °F 35.6 °F 87% 29.95 in 10.0 mi South 11.5 mph - N/A   Overcast
4:35 PM 39.2 °F 33.0 °F 35.6 °F 87% 29.95 in 10.0 mi SSW 9.2 mph - N/A   Overcast
4:55 PM 39.2 °F 32.0 °F 35.6 °F 87% 29.93 in 10.0 mi South 11.5 mph - N/A   Overcast
5:15 PM 39.2 °F 32.0 °F 35.6 °F 87% 29.93 in 10.0 mi SSW 11.5 mph - N/A   Overcast
5:35 PM 39.2 °F 32.5 °F 35.6 °F 87% 29.92 in 10.0 mi SSW 10.4 mph - N/A   Overcast
5:55 PM 39.2 °F 32.0 °F 35.6 °F 87% 29.91 in 10.0 mi SSW 11.5 mph - N/A   Overcast
6:15 PM 39.2 °F 32.0 °F 35.6 °F 87% 29.90 in 10.0 mi SSW 11.5 mph 17.3 mph N/A   Overcast
6:35 PM 37.4 °F 28.5 °F 35.6 °F 93% 29.88 in 10.0 mi SSW 15.0 mph - N/A   Overcast
6:55 PM 37.4 °F 28.9 °F 35.6 °F 93% 29.86 in 8.0 mi South 13.8 mph - N/A   Overcast
7:15 PM 37.4 °F 28.9 °F 35.6 °F 93% 29.86 in 8.0 mi SSW 13.8 mph 18.4 mph N/A   Overcast
7:35 PM 37.4 °F 28.2 °F 35.6 °F 93% 29.85 in 8.0 mi South 16.1 mph - N/A   Overcast
7:55 PM 37.4 °F 27.5 °F 35.6 °F 93% 29.83 in 7.0 mi South 18.4 mph - N/A   Overcast
8:15 PM 37.4 °F 28.2 °F 35.6 °F 93% 29.83 in 5.0 mi South 16.1 mph - 0.01 in   Overcast
8:35 PM 35.6 °F 26.2 °F 33.8 °F 93% 29.81 in 5.0 mi South 15.0 mph 19.6 mph 0.02 in   Overcast
8:55 PM 37.4 °F 27.5 °F 35.6 °F 93% 29.80 in 8.0 mi South 18.4 mph 23.0 mph 0.02 in   Overcast
9:15 PM 35.6 °F 25.5 °F 35.6 °F 100% 29.79 in 8.0 mi South 17.3 mph 27.6 mph N/A   Overcast
9:35 PM 35.6 °F 25.2 °F 35.6 °F 100% 29.79 in 6.0 mi South 18.4 mph 24.2 mph N/A   Overcast
9:55 PM 37.4 °F 27.5 °F 33.8 °F 87% 29.76 in 5.0 mi South 18.4 mph 25.3 mph 0.01 in   Overcast
10:15 PM 35.6 °F 25.2 °F 35.6 °F 100% 29.74 in 5.0 mi South 18.4 mph 25.3 mph 0.01 in   Overcast
10:35 PM 35.6 °F 25.5 °F 33.8 °F 93% 29.74 in 3.0 mi South 17.3 mph 24.2 mph 0.02 in   Overcast
10:55 PM 35.6 °F 25.9 °F 33.8 °F 93% 29.73 in 3.0 mi South 16.1 mph - 0.03 in   Overcast
11:15 PM 35.6 °F 26.2 °F 33.8 °F 93% 29.71 in 4.0 mi South 15.0 mph 20.7 mph 0.02 in   Overcast
11:35 PM 35.6 °F 27.1 °F 33.8 °F 93% 29.70 in 3.0 mi South 12.7 mph 19.6 mph 0.02 in   Overcast
11:55 PM 35.6 °F 25.5 °F 35.6 °F 100% 29.69 in 3.0 mi South 17.3 mph 21.9 mph 0.02 in   Overcast